sat.trackr.live / text

‹ back to catalog

STARLINK-34744

NORAD 64952 · 2025-158W

PAYLOAD ACTIVE UNKNOWN

§ Identity

Operator
Country
US
Launch date
2025-07-27
Launch site
AFWTR
Launch vehicle
Mass (kg)
RCS (m²)

Purposes: comms

External: N2YO · Heavens-Above · Gunter

§ Orbital elements

Epoch: 2026-09-20T14:27:11.019168Z

Period
93.91 min
Inclination
97.2839°
Eccentricity
0.0001964
Mean motion
15.33444433 rev/d
Perigee alt
464.2 km
Apogee alt
466.9 km
Semi-major
6,843.7 km
B*
4.2499e-4
RAAN
121.9242°
Arg perigee
90.7068°
Mean anomaly
269.4400°
Rev number
6,472

§ Raw data

STARLINK-347441 64952U 25158W   26263.60221087  .00013670  00000+0  42499-3 0  99992 64952  97.2839 121.9242 0001964  90.7068 269.4400 15.33444433 64725

JSON: /api/v1/satellites/64952 · /tle

For live sub-satellite position, see the globe view (requires WebGL).

§ Visibility from observer

Set your observer location to see the next 7 days of passes ≥ 10°. The values pass through the URL so the page stays shareable.

No JS? Fill the form by hand. The geolocation button needs JavaScript.